| time (UTC) | temp F | wind direction | speed MPH | gust MPH | rain 1hr in | rain 24hr in | rain mn in | humidity % | barometer mb |
| 20260906074558 | 71 | 208 | 1.0 | 3.0 | 0.00 | 0.00 | 0.00 | 93 | 1012.5 |
| 20260906073055 | 71 | 0 | 0.0 | 0.0 | 0.00 | 0.00 | 0.00 | 93 | 1012.5 |
| 20260906071554 | 71 | 0 | 0.0 | 3.0 | 0.00 | 0.00 | 0.00 | 93 | 1012.5 |
| 20260906070052 | 71 | 0 | 0.0 | 0.0 | 0.00 | 0.00 | 0.00 | 92 | 1012.7 |
| 20260906064557 | 71 | 0 | 0.0 | 0.0 | 0.00 | 0.00 | 0.00 | 92 | 1012.4 |
| 20260906063055 | 71 | 0 | 0.0 | 3.0 | 0.00 | 0.00 | 0.00 | 92 | 1012.7 |
| 20260906061555 | 72 | 26 | 1.0 | 3.0 | 0.00 | 0.00 | 0.00 | 92 | 1012.9 |
| 20260906060155 | 72 | 0 | 0.0 | 1.0 | 0.00 | 0.00 | 0.00 | 92 | 1013.1 |
| 20260906054604 | 72 | 0 | 0.0 | 2.0 | 0.00 | 0.00 | 0.00 | 92 | 1013.4 |
| 20260906053105 | 72 | 0 | 0.0 | 1.0 | 0.00 | 0.00 | 0.00 | 91 | 1013.5 |
| 20260906051606 | 72 | 0 | 0.0 | 3.0 | 0.00 | 0.00 | 0.00 | 91 | 1013.7 |
| 20260906050115 | 72 | 0 | 0.0 | 3.0 | 0.00 | 0.00 | 0.00 | 91 | 1013.8 |
| 20260906044555 | 73 | 0 | 0.0 | 0.0 | 0.00 | 0.00 | 0.00 | 90 | 1013.7 |
| 20260906043054 | 73 | 0 | 0.0 | 2.0 | 0.00 | 0.00 | 0.00 | 90 | 1013.7 |
| 20260906041552 | 73 | 0 | 1.0 | 3.0 | 0.00 | 0.00 | 0.00 | 89 | 1013.7 |
| 20260906034559 | 74 | 0 | 0.0 | 1.0 | 0.00 | 0.00 | 0.00 | 89 | 1014.0 |
| 20260906033053 | 74 | 220 | 2.0 | 3.0 | 0.00 | 0.00 | 0.00 | 89 | 1013.8 |
| 20260906031625 | 74 | 172 | 1.0 | 3.0 | 0.00 | 0.00 | 0.00 | 89 | 1014.0 |
| 20260906030059 | 74 | 172 | 0.0 | 6.0 | 0.00 | 0.00 | 0.00 | 87 | 1014.0 |
| 20260906024600 | 75 | 168 | 2.0 | 4.0 | 0.00 | 0.00 | 0.00 | 86 | 1013.7 |
| 20260906023107 | 75 | 341 | 2.0 | 4.0 | 0.00 | 0.00 | 0.00 | 86 | 1013.5 |
| 20260906021551 | 75 | 208 | 0.0 | 2.0 | 0.00 | 0.00 | 0.00 | 86 | 1013.5 |
| 20260906014554 | 75 | 207 | 1.0 | 4.0 | 0.00 | 0.00 | 0.00 | 85 | 1013.8 |
| 20260906013105 | 76 | 0 | 0.0 | 2.0 | 0.00 | 0.00 | 0.00 | 84 | 1013.5 |
| 20260906011558 | 76 | 0 | 0.0 | 4.0 | 0.00 | 0.00 | 0.00 | 83 | 1013.4 |
| 20260906010054 | 77 | 171 | 3.0 | 5.0 | 0.00 | 0.00 | 0.00 | 81 | 1013.4 |
| 20260906004602 | 78 | 0 | 0.0 | 2.0 | 0.00 | 0.00 | 0.00 | 79 | 1012.9 |
| 20260906003054 | 78 | 0 | 0.0 | 3.0 | 0.00 | 0.00 | 0.00 | 79 | 1012.6 |
| 20260906001609 | 78 | 0 | 0.0 | 0.0 | 0.00 | 0.00 | 0.00 | 78 | 1012.4 |
| 20260906000100 | 79 | 0 | 0.0 | 4.0 | 0.00 | 0.00 | 0.00 | 78 | 1012.6 |
| 20260905234558 | 80 | 329 | 0.0 | 3.0 | 0.00 | 0.00 | 0.00 | 75 | 1012.6 |
| 20260905233106 | 80 | 309 | 2.0 | 4.0 | 0.00 | 0.00 | 0.00 | 74 | 1012.6 |
| 20260905231610 | 81 | 275 | 1.0 | 2.0 | 0.00 | 0.00 | 0.00 | 73 | 1012.8 |
| 20260905230108 | 81 | 275 | 1.0 | 3.0 | 0.00 | 0.00 | 0.00 | 72 | 1012.7 |
| 20260905224556 | 81 | 0 | 0.0 | 2.0 | 0.00 | 0.00 | 0.00 | 72 | 1012.4 |
| 20260905223056 | 81 | 352 | 1.0 | 5.0 | 0.00 | 0.00 | 0.00 | 72 | 1012.2 |
| 20260905221602 | 81 | 323 | 2.0 | 4.0 | 0.00 | 0.00 | 0.00 | 70 | 1012.5 |
| 20260905220104 | 81 | 350 | 1.0 | 5.0 | 0.00 | 0.00 | 0.00 | 70 | 1012.8 |
| 20260905214606 | 82 | 45 | 1.0 | 4.0 | 0.00 | 0.00 | 0.00 | 68 | 1012.7 |
| 20260905213105 | 82 | 360 | 2.0 | 10.0 | 0.00 | 0.00 | 0.00 | 66 | 1012.9 |
| 20260905211603 | 83 | 44 | 1.0 | 5.0 | 0.00 | 0.00 | 0.00 | 65 | 1013.2 |
| 20260905210107 | 83 | 232 | 2.0 | 5.0 | 0.00 | 0.00 | 0.00 | 65 | 1013.0 |
| 20260905204553 | 82 | 26 | 2.0 | 6.0 | 0.00 | 0.00 | 0.00 | 67 | 1012.8 |
| 20260905203100 | 82 | 48 | 1.0 | 4.0 | 0.00 | 0.00 | 0.00 | 65 | 1013.1 |
| 20260905201607 | 82 | 39 | 3.0 | 9.0 | 0.00 | 0.00 | 0.00 | 65 | 1013.4 |
| 20260905200130 | 83 | 59 | 4.0 | 7.0 | 0.00 | 0.00 | 0.00 | 63 | 1013.3 |
| 20260905194601 | 84 | 19 | 4.0 | 13.0 | 0.00 | 0.00 | 0.00 | 60 | 1014.5 |
| 20260905193103 | 85 | 13 | 7.0 | 16.0 | 0.00 | 0.00 | 0.00 | 58 | 1013.9 |
| 20260905191605 | 87 | 333 | 8.0 | 21.0 | 0.00 | 0.00 | 0.00 | 55 | 1013.6 |
| 20260905190054 | 94 | 28 | 5.0 | 11.0 | 0.00 | 0.00 | 0.00 | 49 | 1013.1 |
| 20260905184603 | 95 | 0 | 1.0 | 6.0 | 0.00 | 0.00 | 0.00 | 46 | 1012.4 |
| 20260905183056 | 97 | 287 | 2.0 | 7.0 | 0.00 | 0.00 | 0.00 | 46 | 1012.5 |
| 20260905181603 | 96 | 157 | 4.0 | 7.0 | 0.00 | 0.00 | 0.00 | 45 | 1012.7 |
| 20260905180115 | 96 | 83 | 3.0 | 11.0 | 0.00 | 0.00 | 0.00 | 48 | 1013.2 |
| 20260905174556 | 94 | 153 | 3.0 | 7.0 | 0.00 | 0.00 | 0.00 | 49 | 1013.3 |
| 20260905173129 | 95 | 26 | 2.0 | 10.0 | 0.00 | 0.00 | 0.00 | 49 | 1013.3 |
| 20260905171603 | 94 | 0 | 4.0 | 12.0 | 0.00 | 0.00 | 0.00 | 47 | 1013.4 |
| 20260905170105 | 94 | 212 | 1.0 | 7.0 | 0.00 | 0.00 | 0.00 | 52 | 1013.6 |
| 20260905164601 | 94 | 271 | 3.0 | 9.0 | 0.00 | 0.00 | 0.00 | 52 | 1014.2 |
| 20260905163105 | 93 | 111 | 2.0 | 7.0 | 0.00 | 0.00 | 0.00 | 53 | 1014.4 |
| 20260905161604 | 93 | 136 | 1.0 | 11.0 | 0.00 | 0.00 | 0.00 | 55 | 1014.5 |
| 20260905154602 | 92 | 169 | 1.0 | 4.0 | 0.00 | 0.00 | 0.00 | 56 | 1014.8 |
| 20260905153053 | 91 | 218 | 0.0 | 3.0 | 0.00 | 0.00 | 0.00 | 59 | 1015.0 |
| 20260905151558 | 90 | 281 | 1.0 | 4.0 | 0.00 | 0.00 | 0.00 | 60 | 1015.1 |
| 20260905150054 | 89 | 213 | 3.0 | 6.0 | 0.00 | 0.00 | 0.00 | 63 | 1015.1 |
| 20260905144552 | 88 | 163 | 1.0 | 6.0 | 0.00 | 0.00 | 0.00 | 66 | 1015.1 |
| 20260905143105 | 87 | 0 | 0.0 | 3.0 | 0.00 | 0.00 | 0.00 | 68 | 1015.3 |
| 20260905141602 | 85 | 0 | 1.0 | 2.0 | 0.00 | 0.00 | 0.00 | 72 | 1015.4 |
| 20260905140059 | 84 | 0 | 0.0 | 3.0 | 0.00 | 0.00 | 0.00 | 74 | 1015.5 |
| 20260905134605 | 83 | 0 | 1.0 | 4.0 | 0.00 | 0.00 | 0.00 | 76 | 1015.8 |
| 20260905133056 | 82 | 295 | 3.0 | 7.0 | 0.00 | 0.00 | 0.00 | 78 | 1015.8 |
| 20260905131554 | 80 | 243 | 0.0 | 3.0 | 0.00 | 0.00 | 0.00 | 81 | 1015.7 |
| 20260905124601 | 77 | 0 | 1.0 | 4.0 | 0.00 | 0.00 | 0.00 | 87 | 1015.6 |
| 20260905123104 | 76 | 0 | 0.0 | 0.0 | 0.00 | 0.00 | 0.00 | 89 | 1015.6 |
| 20260905121559 | 74 | 0 | 0.0 | 0.0 | 0.00 | 0.00 | 0.00 | 92 | 1015.6 |
| 20260905120105 | 73 | 0 | 0.0 | 0.0 | 0.00 | 0.00 | 0.00 | 93 | 1015.4 |
| 20260905114601 | 73 | 0 | 0.0 | 0.0 | 0.00 | 0.00 | 0.00 | 93 | 1015.3 |
| 20260905113059 | 73 | 0 | 0.0 | 0.0 | 0.00 | 0.00 | 0.00 | 93 | 1015.1 |
| 20260905111649 | 73 | 0 | 0.0 | 0.0 | 0.00 | 0.00 | 0.00 | 93 | 1014.8 |
| 20260905104559 | 73 | 0 | 0.0 | 0.0 | 0.00 | 0.00 | 0.00 | 94 | 1014.6 |
| 20260905103101 | 73 | 0 | 0.0 | 0.0 | 0.00 | 0.00 | 0.00 | 93 | 1014.4 |
| 20260905101600 | 73 | 0 | 0.0 | 0.0 | 0.00 | 0.00 | 0.00 | 93 | 1014.4 |
| 20260905100059 | 74 | 0 | 0.0 | 0.0 | 0.00 | 0.00 | 0.00 | 94 | 1014.4 |
| 20260905094552 | 74 | 0 | 0.0 | 0.0 | 0.00 | 0.00 | 0.00 | 93 | 1014.4 |
| 20260905093122 | 74 | 0 | 0.0 | 0.0 | 0.00 | 0.00 | 0.00 | 93 | 1014.4 |
| 20260905091600 | 74 | 0 | 0.0 | 0.0 | 0.00 | 0.00 | 0.00 | 93 | 1014.4 |
| 20260905090055 | 74 | 0 | 0.0 | 0.0 | 0.00 | 0.00 | 0.00 | 93 | 1014.5 |
| 20260905084557 | 75 | 0 | 0.0 | 0.0 | 0.00 | 0.00 | 0.00 | 93 | 1014.4 |
| 20260905083103 | 75 | 0 | 0.0 | 0.0 | 0.00 | 0.00 | 0.00 | 93 | 1014.4 |
| 20260905081549 | 75 | 0 | 0.0 | 0.0 | 0.00 | 0.00 | 0.00 | 93 | 1014.6 |
| 20260905080056 | 75 | 0 | 0.0 | 0.0 | 0.00 | 0.00 | 0.00 | 93 | 1014.7 |